Date String (YYYY-MM-DD hh:mm:ss) UTC,Instrument flags,Ambient pressure (hPa),Sample flow (lpm),Bypass flow (lpm),Sample temperature (°C),Ambient temperature (°C),ASC tube jacket temperature (°C),LED temperature (°C),Box temperature (°C),Sample RH (%),Span deviation,Mass concentration (μg/m³),Mass concentration (μg/m³),Mass concentration (μg/m³)
DateTimeUTC,F1_M11,P_M11,Q1_M11,Q2_M11,T1_M11,T2_M11,T3_M11,T4_M11,T5_M11,U1_M11,ZSPAN_M11,X0_M11,X2_M11,X1_M11
2023-01-26 07:00:00,,0829.7,5.00,0.00,22.1,20.4,00.0,31.0,23.8,04.8,0000.0,0001.19,0000.79,0000.71
2023-01-26 07:01:00,,0829.7,5.01,0.00,22.1,20.3,00.0,31.0,23.7,04.7,0000.0,0001.17,0000.78,0000.70
2023-01-26 07:02:00,,0829.7,4.99,0.00,22.0,20.3,00.0,31.0,23.7,04.7,0000.0,0001.14,0000.76,0000.68
2023-01-26 07:03:00,,0829.7,4.98,0.00,22.0,20.7,00.0,30.9,23.7,04.7,0000.0,0001.08,0000.73,0000.66
2023-01-26 07:04:00,,0829.7,5.02,0.00,22.1,21.7,00.0,30.9,24.0,04.7,0000.0,0001.05,0000.72,0000.65
2023-01-26 07:05:00,,0829.7,5.00,0.00,22.2,22.5,00.0,30.9,24.2,04.7,0000.0,0001.07,0000.72,0000.64
2023-01-26 07:06:00,,0829.7,4.99,0.00,22.3,22.4,00.0,31.0,24.2,04.7,0000.0,0001.06,0000.72,0000.63
2023-01-26 07:07:00,,0829.7,4.99,0.00,22.3,21.9,00.0,31.0,24.2,04.7,0000.0,0001.05,0000.71,0000.63
2023-01-26 07:08:00,,0829.6,4.99,0.00,22.3,21.5,00.0,31.0,24.1,04.7,0000.0,0001.05,0000.70,0000.62
2023-01-26 07:09:00,,0829.6,4.99,0.00,22.3,21.1,00.0,31.0,24.0,04.7,0000.0,0001.06,0000.71,0000.62
2023-01-26 07:10:00,,0829.6,5.01,0.00,22.2,20.9,00.0,31.0,23.9,04.7,0000.0,0001.01,0000.70,0000.61
2023-01-26 07:11:00,,0829.7,4.99,0.00,22.2,20.7,00.0,31.0,23.9,04.7,0000.0,0000.97,0000.69,0000.60
2023-01-26 07:12:00,,0829.7,5.00,0.00,22.2,20.6,00.0,31.0,23.8,04.8,0000.0,0000.95,0000.69,0000.59
2023-01-26 07:13:00,,0829.7,4.99,0.00,22.1,20.5,00.0,31.0,23.8,04.7,0000.0,0000.96,0000.69,0000.58
2023-01-26 07:14:00,,0829.9,5.00,0.00,22.1,20.4,00.0,31.0,23.7,04.7,0000.0,0000.95,0000.68,0000.58
2023-01-26 07:15:00,,0829.7,4.99,0.00,22.1,20.4,00.0,30.9,23.7,04.7,0000.0,0000.95,0000.69,0000.59
2023-01-26 07:16:00,,0829.6,4.99,0.00,22.0,20.3,00.0,30.9,23.6,04.7,0000.0,0000.90,0000.66,0000.59
2023-01-26 07:17:00,,0829.6,5.01,0.00,22.0,20.9,00.0,30.9,23.7,04.8,0000.0,0000.87,0000.65,0000.58
2023-01-26 07:18:00,,0829.8,5.01,0.00,22.1,21.9,00.0,30.9,24.0,04.8,0000.0,0000.92,0000.66,0000.58
2023-01-26 07:19:00,,0829.7,4.99,0.00,22.2,22.7,00.0,30.9,24.2,04.8,0000.0,0000.92,0000.66,0000.58
2023-01-26 07:20:00,,0829.9,4.99,0.00,22.3,22.4,00.0,31.0,24.2,04.8,0000.0,0000.92,0000.66,0000.57
2023-01-26 07:21:00,,0829.8,4.98,0.00,22.3,21.9,00.0,31.0,24.2,04.7,0000.0,0000.93,0000.66,0000.58
2023-01-26 07:22:00,,0829.7,5.00,0.00,22.3,21.5,00.0,31.0,24.1,04.8,0000.0,0001.83,0000.69,0000.59
2023-01-26 07:23:00,,0829.6,5.00,0.00,22.2,21.2,00.0,31.0,24.0,04.8,0000.0,0001.88,0000.70,0000.59
2023-01-26 07:24:00,,0829.6,5.02,0.00,22.2,20.9,00.0,31.0,23.9,04.8,0000.0,0001.96,0000.70,0000.60
2023-01-26 07:25:00,,0829.6,5.00,0.00,22.2,20.7,00.0,31.0,23.9,04.8,0000.0,0001.99,0000.70,0000.60
2023-01-26 07:26:00,,0829.6,5.00,0.00,22.2,20.6,00.0,31.0,23.8,04.8,0000.0,0001.98,0000.69,0000.59
2023-01-26 07:27:00,,0829.5,5.01,0.00,22.1,20.4,00.0,31.0,23.8,04.8,0000.0,0001.98,0000.69,0000.59
2023-01-26 07:28:00,,0829.6,5.00,0.00,22.1,20.3,00.0,30.9,23.7,04.9,0000.0,0001.97,0000.69,0000.59
2023-01-26 07:29:00,,0829.6,5.00,0.00,22.0,20.3,00.0,30.9,23.6,04.8,0000.0,0001.99,0000.70,0000.59
2023-01-26 07:30:00,,0829.6,5.02,0.00,22.0,20.6,00.0,30.9,23.6,04.9,0000.0,0002.02,0000.72,0000.60
2023-01-26 07:31:00,,0829.6,5.02,0.00,22.1,21.6,00.0,30.9,23.9,04.9,0000.0,0002.05,0000.74,0000.61
2023-01-26 07:32:00,,0829.6,5.00,0.00,22.2,22.6,00.0,30.9,24.1,04.8,0000.0,0002.04,0000.74,0000.62
2023-01-26 07:33:00,,0829.9,4.98,0.00,22.3,22.6,00.0,31.0,24.2,04.8,0000.0,0001.17,0000.74,0000.62
2023-01-26 07:34:00,,0829.6,5.01,0.00,22.3,22.1,00.0,31.0,24.2,04.8,0000.0,0001.15,0000.75,0000.62
2023-01-26 07:35:00,,0829.6,5.00,0.00,22.3,21.7,00.0,31.0,24.1,04.8,0000.0,0001.07,0000.74,0000.62
2023-01-26 07:36:00,,0829.6,5.00,0.00,22.3,21.3,00.0,31.0,24.0,04.8,0000.0,0001.05,0000.75,0000.63
2023-01-26 07:37:00,,0829.6,4.99,0.00,22.2,21.0,00.0,31.0,23.9,04.8,0000.0,0001.07,0000.77,0000.64
2023-01-26 07:38:00,,0829.6,5.01,0.00,22.2,20.8,00.0,31.0,23.9,04.8,0000.0,0001.13,0000.79,0000.65
2023-01-26 07:39:00,,0829.6,5.02,0.00,22.2,20.7,00.0,31.0,23.8,04.9,0000.0,0001.20,0000.82,0000.66
2023-01-26 07:40:00,,0829.5,5.01,0.00,22.1,20.5,00.0,31.0,23.7,04.9,0000.0,0001.14,0000.79,0000.66
2023-01-26 07:41:00,,0829.5,5.01,0.00,22.1,20.4,00.0,31.0,23.7,04.9,0000.0,0002.42,0000.79,0000.66
2023-01-26 07:42:00,,0829.6,5.00,0.00,22.0,20.3,00.0,30.9,23.6,04.9,0000.0,0002.47,0000.78,0000.66
2023-01-26 07:43:00,,0829.6,4.99,0.00,22.0,20.4,00.0,30.9,23.6,04.9,0000.0,0002.49,0000.78,0000.65
2023-01-26 07:44:00,,0829.6,5.01,0.00,22.1,21.3,00.0,30.9,23.8,04.9,0000.0,0002.56,0000.79,0000.65
2023-01-26 07:45:00,,0829.6,5.01,0.00,22.2,22.3,00.0,30.9,24.0,04.9,0000.0,0002.57,0000.77,0000.65
2023-01-26 07:46:00,,0829.6,4.99,0.00,22.3,22.7,00.0,30.9,24.2,04.9,0000.0,0002.54,0000.75,0000.64
2023-01-26 07:47:00,,0829.6,4.99,0.00,22.3,22.2,00.0,31.0,24.2,04.9,0000.0,0002.54,0000.74,0000.63
2023-01-26 07:48:00,,0829.6,5.03,0.00,22.3,21.7,00.0,31.0,24.1,04.9,0000.0,0002.55,0000.75,0000.63
2023-01-26 07:49:00,,0829.5,5.00,0.00,22.2,21.3,00.0,31.0,24.0,04.9,0000.0,0002.52,0000.74,0000.62
2023-01-26 07:50:00,,0829.5,5.00,0.00,22.2,21.0,00.0,31.0,23.9,04.9,0000.0,0002.47,0000.72,0000.61
2023-01-26 07:51:00,,0829.6,4.99,0.00,22.2,20.8,00.0,31.0,23.8,04.9,0000.0,0002.53,0000.74,0000.62
2023-01-26 07:52:00,,0829.6,5.01,0.00,22.1,20.6,00.0,31.0,23.7,04.9,0000.0,0001.18,0000.72,0000.60
2023-01-26 07:53:00,,0829.5,4.99,0.00,22.1,20.5,00.0,31.0,23.7,04.9,0000.0,0001.10,0000.70,0000.59
2023-01-26 07:54:00,,0829.5,4.99,0.00,22.0,20.4,00.0,30.9,23.6,04.9,0000.0,0001.07,0000.69,0000.59
2023-01-26 07:55:00,,0829.5,5.00,0.00,22.0,20.3,00.0,30.9,23.5,05.0,0000.0,0001.00,0000.67,0000.59
2023-01-26 07:56:00,,0829.5,5.01,0.00,22.0,20.9,00.0,30.9,23.7,05.0,0000.0,0001.04,0000.69,0000.59
2023-01-26 07:57:00,,0829.6,5.01,0.00,22.1,21.9,00.0,30.9,24.0,05.0,0000.0,0001.09,0000.70,0000.59
2023-01-26 07:58:00,,0829.5,5.00,0.00,22.2,22.7,00.0,30.9,24.2,04.9,0000.0,0001.16,0000.73,0000.60
2023-01-26 07:59:00,,0829.5,4.99,0.00,22.3,22.3,00.0,30.9,24.2,04.9,0000.0,0001.20,0000.74,0000.60
